Wellsville, NY

6:56 PM EST on December 09, 2019 (GMT -0500)
Wellsville Municipal-Tarantine

Weather History for KELZ - November, 2019

Change the Weather History Date:

Tuesday, November 12, 2019

  Actual Average (WUND) Record (WUND)
Temperature  
Mean Temperature 16 °F -  
Max Temperature 23 °F - - (-1)
Min Temperature 8 °F - - (-1)
Degree Days  
Heating Degree Days 50    
Moisture  
Dew Point 14 °F    
Average Humidity 84    
Maximum Humidity 100    
Minimum Humidity 54    
Precipitation  
Precipitation 0.15 in - - ()
Sea Level Pressure  
Sea Level Pressure 30.01 in    
Wind  
Wind Speed 10 mph ()    
Max Wind Speed 17 mph    
Max Gust Speed 28 mph    
Visibility 4.6 miles    
Events Fog , Snow    
Averages and records for this station are not official NWS values.
T = Trace of Precipitation, MM = Missing Value Source: Averaged Metar Reports

Daily Weather History Graph

Daily Weather History Graph

Search for Another Location

Airport or City:

Astronomy

Nov. 12, 2019 Rise Set
Actual Time 6:58 AM EST 4:53 PM EST
Civil Twilight 6:28 AM EST 5:23 PM EST
Nautical Twilight 5:54 AM EST 5:57 PM EST
Astronomical Twilight 5:21 AM EST 6:29 PM EST
Moon 5:20 PM EST (11/12) 6:46 AM EST (11/12)
Length of Visible Light 10h 55m
Length of Day
9h 55m
Full, 100% of the Moon is Illuminated
Nov 12
Full
Nov 19
Last Quarter
Nov 26
New
Dec 4
First Quarter
Dec 12
Full

Hourly Weather History & Observations

Time (EST) Temp. Windchill Dew Point Humidity Pressure Visibility Wind Dir Wind Speed Gust Speed Precip Events Conditions
12:07 AM 23.0 °F - 23.0 °F 100% 29.80 in 0.5 mi North - - 0.02 in Fog , Snow Snow
12:42 AM 23.0 °F - 21.9 °F 96% 29.80 in 1.0 mi North - - 0.06 in Snow Light Snow
12:51 AM 23.0 °F - 21.2 °F 93% 29.80 in 0.8 mi North - - 0.07 in Snow Light Snow
12:56 AM 23.0 °F - 21.9 °F 96% 29.88 in 0.8 mi North - - 0.07 in Snow Light Snow
1:31 AM 21.9 °F - 21.0 °F 96% 29.81 in 1.0 mi North - - 0.03 in Snow Light Snow
1:48 AM 21.9 °F - 21.0 °F 96% 29.81 in 1.0 mi North - - 0.03 in Snow Light Snow
1:56 AM 21.9 °F - 19.9 °F 92% 29.90 in 1.0 mi North - - 0.03 in Snow Light Snow
2:03 AM 21.0 °F - 19.9 °F 96% 29.81 in 1.0 mi North - - 0.01 in Snow Light Snow
2:16 AM 21.0 °F - 19.0 °F 92% 29.82 in 1.0 mi North - - 0.01 in Snow Light Snow
2:56 AM 19.9 °F - 19.0 °F 96% 29.93 in 1.2 mi North - - 0.02 in Snow Light Snow
3:56 AM 19.9 °F - 18.0 °F 92% 29.95 in 1.5 mi North - - 0.02 in Snow Light Snow
4:15 AM 19.9 °F - 18.0 °F 92% 29.86 in 2.5 mi North - - 0.00 in Snow Light Snow
4:23 AM 19.9 °F - 18.0 °F 92% 29.86 in 3.0 mi North - - 0.00 in Snow Light Snow
4:38 AM 19.9 °F - 18.0 °F 92% 29.86 in 2.0 mi North - - 0.00 in Snow Light Snow
4:56 AM 19.9 °F - 18.0 °F 92% 29.96 in 1.8 mi North - - 0.00 in Snow Light Snow
5:37 AM 19.0 °F - 17.1 °F 92% 29.88 in 2.0 mi North - - 0.00 in Snow Light Snow
5:49 AM 19.0 °F - 17.1 °F 92% 29.89 in 3.0 mi North - - 0.00 in Snow Light Snow
5:56 AM 19.0 °F - 17.1 °F 92% 29.99 in 4.0 mi North - - 0.00 in Snow Light Snow
6:46 AM 19.0 °F - 17.1 °F 92% 29.92 in 3.0 mi North - - 0.00 in Snow Light Snow
6:56 AM 19.0 °F - 16.0 °F 88% 30.02 in 2.5 mi North - - 0.00 in Snow Light Snow
7:20 AM 18.0 °F - 16.0 °F 92% 29.93 in 2.5 mi North - - 0.00 in Snow Light Snow
7:56 AM 18.0 °F 8.7 °F 16.0 °F 92% 30.06 in 1.2 mi NNW 6.9 mph - 0.00 in Snow Light Snow
8:12 AM 18.0 °F 6.9 °F 16.0 °F 92% 29.96 in 1.2 mi NNW 9.2 mph - 0.00 in Snow Light Snow
8:21 AM 18.0 °F 6.1 °F 16.0 °F 92% 29.96 in 1.2 mi NNW 10.4 mph - 0.00 in Snow Light Snow
8:43 AM 19.0 °F 6.8 °F 16.0 °F 88% 29.97 in 2.0 mi NW 11.5 mph 19.6 mph 0.00 in Snow Light Snow
8:56 AM 19.0 °F 6.8 °F 15.1 °F 85% 30.07 in 2.0 mi NNW 11.5 mph - 0.00 in Snow Light Snow
9:36 AM 19.0 °F 5.0 °F 14.0 °F 81% 29.98 in 3.0 mi NNW 15.0 mph 19.6 mph 0.01 in Snow Light Snow
9:56 AM 19.0 °F 6.1 °F 14.0 °F 81% 30.09 in 5.0 mi NNW 12.7 mph - 0.01 in   Haze
10:26 AM 19.0 °F 6.1 °F 15.1 °F 85% 29.99 in 1.2 mi NNW 12.7 mph - 0.00 in Snow Light Snow
10:56 AM 19.9 °F 10.1 °F 16.0 °F 85% 30.09 in 0.8 mi NNW 8.1 mph - 0.00 in Snow Light Snow
11:05 AM 19.9 °F 8.6 °F 16.0 °F 85% 29.99 in 1.0 mi NNW 10.4 mph - 0.00 in Snow Light Snow
11:31 AM 19.9 °F 7.9 °F 16.0 °F 85% 30.00 in 1.2 mi NW 11.5 mph - 0.00 in Snow Light Snow
11:56 AM 21.0 °F 9.3 °F 15.1 °F 78% 30.09 in 5.0 mi NNW 11.5 mph 19.6 mph 0.00 in Snow Light Snow
12:15 PM 21.0 °F 9.9 °F 14.0 °F 74% 29.99 in 10.0 mi NNW 10.4 mph - 0.00 in   Overcast
12:56 PM 21.0 °F 8.6 °F 12.9 °F 71% 30.09 in 10.0 mi NW 12.7 mph 20.7 mph 0.00 in   Overcast
1:14 PM 19.9 °F 5.7 °F 14.0 °F 78% 30.00 in 2.5 mi NW 16.1 mph - 0.00 in Snow Light Snow
1:21 PM 19.9 °F 6.7 °F 14.0 °F 78% 30.00 in 5.0 mi NW 13.8 mph 27.6 mph 0.00 in Snow Light Snow
1:56 PM 19.9 °F 6.7 °F 10.9 °F 68% 30.12 in 9.0 mi NW 13.8 mph 25.3 mph 0.00 in   Mostly Cloudy
2:03 PM 19.9 °F 5.2 °F 12.9 °F 74% 30.02 in 8.0 mi NW 17.3 mph 24.2 mph 0.00 in Snow Light Snow
2:16 PM 19.9 °F 6.2 °F 12.9 °F 74% 30.03 in 9.0 mi NNW 15.0 mph 23.0 mph 0.00 in   Mostly Cloudy
2:36 PM 19.0 °F 5.6 °F 9.0 °F 65% 30.04 in 10.0 mi NW 13.8 mph - 0.00 in   Scattered Clouds
2:56 PM 18.0 °F 3.6 °F 7.0 °F 62% 30.15 in 10.0 mi NNW 15.0 mph 26.5 mph 0.00 in   Scattered Clouds
3:56 PM 17.1 °F 4.3 °F 3.0 °F 54% 30.17 in 10.0 mi NNW 11.5 mph - N/A   Clear
4:56 PM 15.1 °F 2.5 °F 3.0 °F 59% 30.18 in 10.0 mi NW 10.4 mph - N/A   Clear
5:56 PM 12.9 °F 0.7 °F 1.0 °F 59% 30.21 in 10.0 mi NW 9.2 mph - N/A   Clear
6:56 PM 10.9 °F -0.8 °F 3.0 °F 70% 30.23 in 10.0 mi WNW 8.1 mph - N/A   Partly Cloudy
7:08 PM 10.0 °F -1.9 °F 3.0 °F 73% 30.11 in 10.0 mi WNW 8.1 mph - N/A   Mostly Cloudy
7:56 PM 12.0 °F -0.4 °F 6.1 °F 77% 30.25 in 10.0 mi NW 9.2 mph - N/A   Overcast
8:44 PM 10.0 °F -2.9 °F 7.0 °F 87% 30.13 in 6.0 mi West 9.2 mph - N/A   Mostly Cloudy
8:51 PM 10.4 °F -2.4 °F 6.8 °F 85% 30.13 in 8.0 mi West 9.2 mph - N/A   Scattered Clouds
8:56 PM 10.0 °F -2.9 °F 7.0 °F 87% 30.26 in 10.0 mi West 9.2 mph - N/A   Scattered Clouds
9:56 PM 10.0 °F -3.7 °F 6.1 °F 84% 30.26 in 10.0 mi West 10.4 mph - N/A   Clear
10:56 PM 8.1 °F -4.3 °F 5.0 °F 87% 30.26 in 10.0 mi WNW 8.1 mph - N/A   Clear
11:56 PM 9.0 °F -4.2 °F 5.0 °F 84% 30.26 in 10.0 mi West 9.2 mph - N/A   Clear